• In Netherlands
  • List of Countries
  • For 7 days
  • Water Temperature
  • Satellite Maps
  • Weather Map
  • Weather Widgets
  • user-avatar
    Login

    Hourly Weather Shumen

    Today, 23 April, Sunday

    Time Temperature Precipitation Wind Pressure Humidity
    00:00 +1°C° 0 mm 2 mps 727 mmHg 76%
    01:00 +1°C° 0 mm 2 mps 727 mmHg 79%
    02:00 +1°C° 0 mm 2 mps 727 mmHg 81%
    03:00 +1°C° 0 mm 2 mps 727 mmHg 84%
    04:00 0°C° 0 mm 3 mps 726 mmHg 86%
    05:00 +1°C° 0 mm 3 mps 726 mmHg 89%
    06:00 +2°C° 0 mm 3 mps 726 mmHg 86%
    07:00 +4°C° 0 mm 4 mps 727 mmHg 82%
    08:00 +6°C° 0 mm 5 mps 727 mmHg 79%
    09:00 +8°C° 0 mm 5 mps 727 mmHg 73%
    10:00 +9°C° 0 mm 5 mps 727 mmHg 68%
    11:00 +11°C° 0 mm 6 mps 727 mmHg 62%
    12:00 +13°C° 0.2 mm 6 mps 727 mmHg 61%
    13:00 +14°C° 0.2 mm 6 mps 727 mmHg 59%
    14:00 +14°C° 0.2 mm 7 mps 727 mmHg 58%
    15:00 +12°C° 0.2 mm 8 mps 727 mmHg 61%
    16:00 +11°C° 0.2 mm 8 mps 728 mmHg 63%
    17:00 +10°C° 0.2 mm 9 mps 728 mmHg 66%
    18:00 +7°C° 0.1 mm 8 mps 729 mmHg 70%
    19:00 +6°C° 0.1 mm 7 mps 729 mmHg 74%
    20:00 +4°C° 0.1 mm 7 mps 730 mmHg 79%
    21:00 +3°C° 0.1 mm 6 mps 730 mmHg 79%
    22:00 +3°C° 0.1 mm 5 mps 731 mmHg 79%
    23:00 +3°C° 0.1 mm 5 mps 732 mmHg 79%

    Tomorrow, 24 April, Monday

    Time Temperature Precipitation Wind Pressure Humidity
    00:00 +2°C° 0 mm 5 mps 732 mmHg 81%
    01:00 +1°C° 0 mm 5 mps 732 mmHg 83%
    02:00 +1°C° 0 mm 5 mps 732 mmHg 84%
    03:00 +1°C° 0 mm 5 mps 732 mmHg 85%
    04:00 0°C° 0 mm 5 mps 732 mmHg 85%
    05:00 0°C° 0 mm 5 mps 732 mmHg 86%
    06:00 +1°C° 0 mm 5 mps 733 mmHg 81%
    07:00 +3°C° 0 mm 6 mps 733 mmHg 76%
    08:00 +4°C° 0 mm 7 mps 734 mmHg 71%
    09:00 +5°C° 0 mm 7 mps 734 mmHg 65%
    10:00 +8°C° 0 mm 7 mps 734 mmHg 59%
    11:00 +9°C° 0 mm 7 mps 734 mmHg 53%
    12:00 +10°C° 0 mm 7 mps 734 mmHg 51%
    13:00 +10°C° 0 mm 7 mps 734 mmHg 49%
    14:00 +11°C° 0 mm 7 mps 734 mmHg 47%
    15:00 +11°C° 0 mm 6 mps 734 mmHg 49%
    16:00 +12°C° 0 mm 5 mps 734 mmHg 52%
    17:00 +10°C° 0 mm 5 mps 734 mmHg 54%
    18:00 +8°C° 0 mm 4 mps 734 mmHg 63%
    19:00 +7°C° 0 mm 2 mps 734 mmHg 71%
    20:00 +6°C° 0 mm 1 mps 734 mmHg 79%
    21:00 +5°C° 0 mm 1 mps 735 mmHg 79%
    22:00 +5°C° 0 mm 1 mps 735 mmHg 80%
    23:00 +4°C° 0 mm 1 mps 735 mmHg 80%

    Day after tomorrow, 25 April, Tuesday

    Time Temperature Precipitation Wind Pressure Humidity
    00:00 +4°C° 0 mm 1 mps 735 mmHg 79%
    01:00 +4°C° 0 mm 2 mps 735 mmHg 78%
    02:00 +4°C° 0 mm 2 mps 735 mmHg 77%
    03:00 +3°C° 0 mm 2 mps 735 mmHg 77%
    04:00 +3°C° 0 mm 2 mps 735 mmHg 77%
    05:00 +3°C° 0 mm 2 mps 735 mmHg 77%
    06:00 +4°C° 0 mm 3 mps 735 mmHg 72%
    07:00 +8°C° 0 mm 3 mps 735 mmHg 67%
    08:00 +10°C° 0 mm 4 mps 736 mmHg 62%
    09:00 +11°C° 0 mm 4 mps 736 mmHg 59%
    10:00 +13°C° 0 mm 5 mps 736 mmHg 56%
    11:00 +14°C° 0 mm 5 mps 736 mmHg 53%
    12:00 +15°C° 0 mm 6 mps 735 mmHg 52%
    13:00 +16°C° 0 mm 6 mps 735 mmHg 51%
    14:00 +16°C° 0 mm 6 mps 735 mmHg 51%
    15:00 +16°C° 0 mm 6 mps 734 mmHg 54%
    16:00 +15°C° 0 mm 6 mps 734 mmHg 56%
    17:00 +14°C° 0 mm 6 mps 734 mmHg 59%
    18:00 +12°C° 0 mm 5 mps 734 mmHg 65%
    19:00 +9°C° 0 mm 5 mps 734 mmHg 70%
    20:00 +6°C° 0 mm 4 mps 733 mmHg 76%
    21:00 +6°C° 0 mm 4 mps 733 mmHg 77%
    22:00 +5°C° 0 mm 4 mps 733 mmHg 79%
    23:00 +4°C° 0 mm 4 mps 733 mmHg 80%

    26 April, Wednesday

    Time Temperature Precipitation Wind Pressure Humidity
    00:00 +4°C° 0 mm 3 mps 733 mmHg 81%
    01:00 +4°C° 0 mm 3 mps 733 mmHg 81%
    02:00 +4°C° 0 mm 3 mps 733 mmHg 82%
    03:00 +3°C° 0 mm 3 mps 732 mmHg 81%
    04:00 +3°C° 0 mm 3 mps 732 mmHg 80%
    05:00 +4°C° 0 mm 2 mps 732 mmHg 79%
    06:00 +5°C° 0 mm 3 mps 732 mmHg 73%
    07:00 +8°C° 0 mm 3 mps 733 mmHg 67%
    08:00 +10°C° 0 mm 3 mps 733 mmHg 61%
    09:00 +12°C° 0 mm 3 mps 733 mmHg 57%
    10:00 +14°C° 0 mm 4 mps 733 mmHg 52%
    11:00 +17°C° 0 mm 4 mps 733 mmHg 48%
    12:00 +18°C° 0 mm 4 mps 733 mmHg 48%
    13:00 +19°C° 0 mm 4 mps 732 mmHg 48%
    14:00 +19°C° 0 mm 5 mps 732 mmHg 47%
    15:00 +19°C° 0 mm 5 mps 732 mmHg 51%
    16:00 +17°C° 0 mm 5 mps 732 mmHg 54%
    17:00 +18°C° 0 mm 4 mps 731 mmHg 58%
    18:00 +14°C° 0 mm 4 mps 731 mmHg 65%
    19:00 +12°C° 0 mm 4 mps 731 mmHg 72%
    20:00 +9°C° 0 mm 3 mps 731 mmHg 79%
    21:00 +9°C° 0 mm 3 mps 731 mmHg 79%
    22:00 +8°C° 0 mm 3 mps 731 mmHg 79%
    23:00 +7°C° 0 mm 3 mps 731 mmHg 79%

    27 April, Thursday

    Time Temperature Precipitation Wind Pressure Humidity
    00:00 +7°C° 0 mm 3 mps 731 mmHg 79%
    01:00 +7°C° 0 mm 3 mps 731 mmHg 80%
    02:00 +7°C° 0 mm 3 mps 731 mmHg 80%
    03:00 +7°C° 0 mm 3 mps 731 mmHg 80%
    04:00 +7°C° 0 mm 3 mps 730 mmHg 80%
    05:00 +6°C° 0 mm 2 mps 730 mmHg 80%
    06:00 +9°C° 0 mm 3 mps 731 mmHg 74%
    07:00 +11°C° 0 mm 3 mps 731 mmHg 68%
    08:00 +13°C° 0 mm 3 mps 731 mmHg 62%
    09:00 +16°C° 0 mm 3 mps 731 mmHg 58%
    10:00 +18°C° 0 mm 4 mps 731 mmHg 53%
    11:00 +19°C° 0 mm 4 mps 731 mmHg 49%
    12:00 +20°C° 0 mm 4 mps 731 mmHg 48%
    13:00 +21°C° 0 mm 4 mps 731 mmHg 47%
    14:00 +21°C° 0 mm 4 mps 731 mmHg 46%
    15:00 +21°C° 0 mm 4 mps 730 mmHg 50%
    16:00 +20°C° 0 mm 4 mps 730 mmHg 54%
    17:00 +20°C° 0 mm 4 mps 730 mmHg 57%
    18:00 +17°C° 0 mm 4 mps 730 mmHg 63%
    19:00 +14°C° 0 mm 4 mps 730 mmHg 69%
    20:00 +11°C° 0 mm 3 mps 729 mmHg 76%
    21:00 +10°C° 0 mm 3 mps 729 mmHg 75%
    22:00 +10°C° 0 mm 3 mps 729 mmHg 74%
    23:00 +9°C° 0 mm 3 mps 729 mmHg 73%

    28 April, Friday

    Time Temperature Precipitation Wind Pressure Humidity
    00:00 +9°C° 0 mm 3 mps 729 mmHg 73%
    01:00 +9°C° 0 mm 3 mps 728 mmHg 72%
    02:00 +9°C° 0 mm 3 mps 728 mmHg 72%
    03:00 +8°C° 0 mm 3 mps 728 mmHg 71%
    04:00 +8°C° 0 mm 3 mps 728 mmHg 71%
    05:00 +8°C° 0 mm 3 mps 727 mmHg 71%
    06:00 +10°C° 0 mm 3 mps 728 mmHg 67%
    07:00 +12°C° 0 mm 3 mps 728 mmHg 63%
    08:00 +14°C° 0 mm 3 mps 728 mmHg 59%
    09:00 +17°C° 0 mm 3 mps 728 mmHg 56%
    10:00 +19°C° 0 mm 3 mps 728 mmHg 53%
    11:00 +20°C° 0 mm 3 mps 728 mmHg 50%
    12:00 +21°C° 0 mm 3 mps 728 mmHg 50%
    13:00 +23°C° 0 mm 2 mps 727 mmHg 49%
    14:00 +24°C° 0 mm 2 mps 727 mmHg 48%
    15:00 +23°C° 0 mm 2 mps 726 mmHg 51%
    16:00 +22°C° 0 mm 3 mps 726 mmHg 55%
    17:00 +22°C° 0 mm 3 mps 726 mmHg 59%
    18:00 +19°C° 0 mm 3 mps 725 mmHg 64%
    19:00 +17°C° 0 mm 3 mps 725 mmHg 70%
    20:00 +14°C° 0 mm 3 mps 725 mmHg 75%
    21:00 +13°C° 0 mm 3 mps 725 mmHg 74%
    22:00 +13°C° 0 mm 3 mps 724 mmHg 74%
    23:00 +12°C° 0 mm 3 mps 724 mmHg 73%
    Show more